Location: Newark
(45.2633°N, 19.8417°E)
Time: 21:21:56
(UTC+00:00)

Tianhe-1 - Visible Passes

Search period start: 19 June 2021 00:00
Search period end: 29 June 2021 00:00
Orbit: 375 x 386 km, 41.5° (Epoch: 19 June)

Date Brightness Start Highest point End Pass type
(mag) Time Alt. Az. Time Alt. Az. Time Alt. Az.
21 Jun 2.8 01:51:15 12° SSW 01:53:17 20° SSE 01:55:41 10° ESE visible
22 Jun 3.3 00:52:54 13° SE 00:52:54 13° SE 00:54:09 10° ESE visible
23 Jun 2.3 01:26:38 20° SSW 01:27:52 26° SSE 01:30:35 10° ESE visible
24 Jun 3.2 00:28:15 16° SE 00:28:15 16° SE 00:29:22 10° ESE visible
24 Jun 1.7 02:00:23 10° WSW 02:03:21 39° S 02:06:20 10° ESE visible
25 Jun 1.8 01:01:59 31° S 01:02:26 33° SSE 01:05:19 10° ESE visible
26 Jun 3.5 00:03:38 14° ESE 00:03:38 14° ESE 00:04:13 10° ESE visible
26 Jun 1.5 01:35:45 16° WSW 01:37:56 41° S 01:40:57 10° ESE visible
27 Jun 1.8 00:37:29 35° SSE 00:37:29 35° SSE 00:39:57 10° ESE visible
27 Jun 1.8 02:10:34 10° WSW 02:13:26 33° S 02:16:20 10° SE visible
28 Jun 1.5 01:11:26 28° SW 01:12:29 39° S 01:15:28 10° ESE visible
